Location: Mountain View
(37.3861°N, 122.0839°W)
Time: 07:34:57
(UTC-07:00)

ISS - Pass Details

Date: 03 October 2021
Orbit: 418 x 423 km, 51.6° (Epoch: 19 October)

Event Time Altitude Azimuth Distance (km) Brightness Sun altitude
Rises 20:38:56 0° 310° (NW) 2,363 1.1 -22.8°
Reaches altitude 10° 20:41:02 10° 310° (NW) 1,498 -0.1 -23.2°
Enters shadow 20:43:20 41° 310° (NW) 622 -2.5 -23.6°
